Regional Weather Roundup
Issued by NWS Sioux Falls, SD

Home | Current Version | Previous Version | Graphics & Text | Print | Product List | Glossary On
Versions: 1 2 3 4 5 6 7 8 9 10 11 12 13 14 15 16 17 18 19 20 21 22 23 24 25 26 27 28 29 30 31 32 33 34 35 36 37 38 39 40 41 42 43 44 45 46 47 48 49 50
000
ASUS43 KFSD 220602
RWRFSD

WEATHER ROUNDUP FOR SE SOUTH DAKOTA/SW MINNESOTA/NW IOWA
NATIONAL WEATHER SERVICE SIOUX FALLS SD
100 AM CDT FRI SEP 22 2017

NOTE: "FAIR" INDICATES FEW OR NO CLOUDS BELOW 12,000 FEET WITH NO
SIGNIFICANT WEATHER AND OR OBSTRUCTIONS TO VISIBILITY.


SDZ038>040-050-052>070-220700-
SOUTHEAST SOUTH DAKOTA

CITY           SKY/WX    TMP DP  RH WIND       PRES   REMARKS
BROOKINGS      CLEAR     74  71  91 SE12      29.72F
CHAMBERLAIN    CLEAR     72  70  95 E8        29.61S
6HR MIN TEMP:  72; 6HR MAX TEMP:  85;

HURON          CLEAR     74  71  91 SE9       29.63F
6HR MIN TEMP:  74; 6HR MAX TEMP:  82;

MADISON        FAIR      75  75 100 S15G21    29.72S
MITCHELL       CLEAR     79  71  76 S16       29.64S
6HR MIN TEMP:  77; 6HR MAX TEMP:  87;

SIOUX FALLS    CLEAR     80  73  79 S17       29.72S
6HR MIN TEMP:  79; 6HR MAX TEMP:  84;

WINNER         FAIR      77  66  68 S18       29.59F
YANKTON        CLEAR     81  73  76 S21       29.69S
$$

MNZ071-072-080-081-089-090-097-098-220700-
SOUTHWEST MINNESOTA

CITY           SKY/WX    TMP DP  RH WIND       PRES   REMARKS
FAIRMONT       CLEAR     75  70  84 S13       29.82S
JACKSON        CLEAR     73  68  83 S10G17    29.82S
LUVERNE        CLEAR     73  70  88 S8        29.76S
MARSHALL       CLEAR     74  71  91 SE10      29.74S
6HR MIN TEMP:  73; 6HR MAX TEMP:  81;

MONTEVIDEO     CLEAR     72  72 100 S7        29.74S
PIPESTONE      CLEAR     75  72  88 S8        29.76S
REDWOOD FALLS  CLEAR     75  70  84 SE13      29.76S
TRACY          CLEAR     75  72  90 S12       29.76S
WORTHINGTON    CLEAR     74  71  91 S13G20    29.80R
$$

IAZ001>003-012>014-020>022-031-032-NEZ013-014-SDZ071-220700-
NORTHWEST IOWA

CITY           SKY/WX    TMP DP  RH WIND       PRES   REMARKS
CHEROKEE       CLEAR     75  73  94 S8        29.80S
DENISON        PTCLDY    77  72  83 S15G23    29.84R
ESTHERVILLE    CLEAR     75  71  87 S13       29.82R
LE MARS        CLEAR     79  73  83 S13       29.76S
ORANGE CITY    CLEAR     79  73  83 S10G17    29.78R
SHELDON        CLEAR     75  72  88 S10       29.77R
SIOUX CITY     CLEAR     78  74  87 SE9       29.76R
6HR MIN TEMP:  77; 6HR MAX TEMP:  86;

SPENCER        CLEAR     76  71  85 S14       29.81R
6HR MIN TEMP:  76; 6HR MAX TEMP:  83;

STORM LAKE     CLEAR     75  72  88 S12       29.83R
$$

ABBREVIATIONS USED IN REMARKS
   TC - TEMPERATURE IN CELSIUS
  WCI - WIND CHILL INDEX
   HX - HEAT INDEX
  VSB - VISIBILITY





USA.gov is the U.S. government's official web portal to all federal, state and local government web resources and services.